[[{"header":{"parameterUnit":"m.s-1","parameterCategory":1,"la1":30.2991,"la2":30.254,"lo1":-89.0895,"lo2":-89.0444,"dy":0.0017,"dx":0.0017,"nx":28,"ny":28,"refTime":"2023-10-03T09:00:00:Z","depth":0,"parameterNumber":2,"parameterNumberName":"U-component_of_WINDS"},"data":[0,0,0,0,0,0,0,0,0,0,0,0,0,0,0,0,0,0,0,0,0,0,0,0,0,0,0,0,0,0,0,0,0,0,0,0,0,0,0,0,0,0,0,0,0,0,0,0,0,0,0,0,0,0,0,0,0,0,-4.8138,-4.8138,0,-4.8166,-4.8167,-4.8167,-4.807,-4.8067,-4.8064,-4.8062,-4.8089,-4.8093,-4.8096,0,0,0,0,0,0,0,0,0,0,0,0,0,-4.7999,-4.8002,-4.8138,-4.8138,-4.8138,-4.8166,-4.8167,-4.8167,-4.8071,-4.8067,-4.8064,-4.806,-4.8088,-4.8092,-4.8096,0,0,0,0,0,0,0,0,0,0,0,0,0,-4.8046,-4.8003,-4.8138,-4.8094,-4.809,-4.8166,-4.8167,-4.8167,-4.8071,-4.8067,-4.8063,-4.8059,-4.8087,-4.8092,-4.8097,-4.8216,0,0,-4.8113,-4.8115,0,0,0,0,0,0,0,0,-4.8044,-4.8052,-4.81,-4.8097,-4.8093,-4.811,-4.8128,-4.8184,-4.8072,-4.8078,-4.8061,-4.8056,-4.81,-4.8103,-4.8118,-4.8217,-4.8219,-4.8113,-4.8116,-4.8118,-4.812,0,0,0,0,0,0,0,-4.8041,-4.805,-4.8149,-4.8101,-4.8096,-4.8072,-4.8074,-4.8138,-4.8113,-4.8078,-4.8071,-4.8075,-4.8097,-4.8114,-4.8118,-4.8219,-4.8113,-4.8118,-4.8121,-4.8123,-4.8419,-4.8423,0,0,0,0,0,0,-4.8043,-4.8048,-4.8148,-4.815,-4.8057,-4.8078,-4.808,-4.8109,-4.8112,-4.8108,-4.8079,-4.8071,-4.8107,-4.8112,-4.8119,-4.8259,-4.8118,-4.8123,-4.8126,-4.8414,-4.842,-4.8425,0,0,0,0,0,0,-4.8041,-4.8053,-4.8147,-4.8097,-4.8107,-4.8085,-4.8118,-4.8112,-4.8128,-4.8113,-4.8108,-4.8101,-4.8104,-4.8112,-4.8193,-4.8259,-4.8126,-4.813,-4.8408,-4.8416,-4.8422,-4.8541,0,0,0,0,0,0,-4.8037,-4.8053,-4.8098,-4.8099,-4.811,-4.8221,-4.8122,-4.8116,-4.8138,-4.8127,-4.8132,-4.8129,-4.8101,-4.8186,-4.8198,-4.8264,-4.8134,-4.8402,-4.8412,-4.842,-4.8532,-4.8552,-4.8569,0,0,0,0,0,-4.8032,-4.813,-4.8101,-4.8113,-4.8166,-4.8225,-4.8232,-4.8198,-4.8144,-4.8189,-4.8179,-4.8129,-4.825,-4.8195,-4.8208,-4.8276,-4.8398,-4.8409,-4.8419,-4.8523,-4.8548,-4.8569,0,0,0,0,0,0,-4.8136,-4.8129,-4.8097,-4.8197,-4.8213,-4.8209,-4.8265,-4.8225,-4.8255,-4.8244,-4.82,-4.8202,-4.8292,-4.8292,-4.8231,-4.8392,-4.8315,-4.8329,-4.8389,-4.8412,-4.8431,-4.8429,-4.8139,0,0,0,0,0,-4.8171,-4.822,-4.8211,-4.83,-4.831,-4.8287,-4.8311,-4.8284,-4.8297,-4.8303,-4.8299,-4.8315,-4.8356,-4.8384,-4.8421,-4.8531,-4.8531,-4.8585,-4.8603,-4.8619,-4.8631,-4.869,-4.8714,-4.846,-4.846,-4.846,0,0,-4.8243,-4.8245,-4.8278,-4.8321,-4.833,-4.8382,-4.8292,-4.835,-4.8388,-4.8312,-4.8389,-4.8387,-4.8401,-4.8498,-4.854,-4.85,-4.8702,-4.8633,-4.8645,-4.8649,-4.8704,-4.8728,-4.8749,-4.8467,-4.8466,-4.8465,0,0,-4.84,-4.8407,-4.8483,-4.8494,-4.8509,-4.8493,-4.8511,-4.8514,-4.851,-4.8587,-4.8531,-4.8575,-4.8647,-4.866,-4.8676,-4.884,-4.8795,-4.8854,-4.8952,-4.901,-4.903,-4.9047,-4.9107,-4.9128,-4.8866,-4.8866,-4.8867,0,-4.8488,-4.8564,-4.8527,-4.8589,-4.861,-4.8544,-4.8621,-4.8633,-4.866,-4.8675,-4.8631,-4.8721,-4.8726,-4.8825,-4.8865,-4.888,-4.89,-4.8853,-4.903,-4.9047,-4.9063,-4.9119,-4.9141,-4.8873,-4.8873,-4.8872,-4.8871,0,-4.8671,-4.8724,-4.8784,-4.8812,-4.8839,-4.8909,-4.8882,-4.8914,-4.8885,-4.8874,-4.8954,-4.8957,-4.8995,-4.9016,-4.8988,-4.9112,-4.9087,-4.9038,-4.8958,-4.9095,-4.9147,-4.9168,-4.8884,-4.8881,-4.8879,-4.8877,0,0,-4.8893,-4.8902,-4.8924,-4.8936,-4.8949,-4.8989,-4.9056,-4.9094,-4.9122,-4.9143,-4.9198,-4.9261,-4.9216,-4.9234,-4.9206,-4.9258,-4.9389,-4.9201,-4.9201,-4.9236,-4.9526,-4.9564,-4.9589,-4.9359,-4.9363,-4.9366,-4.9525,0,-4.9048,-4.9163,-4.9133,-4.9247,-4.9296,-4.9236,-4.9294,-4.9308,-4.93,-4.934,-4.933,-4.9376,-4.9312,-4.9323,-4.9371,-4.9363,-4.9446,-4.9351,-4.941,-4.9412,-4.9408,-4.9616,-4.9655,-4.9805,-4.9545,-4.9549,-4.9551,0,-4.9244,-4.9274,-4.9394,-4.94,-4.9419,-4.9472,-4.9505,-4.9544,-4.9559,-4.9549,-4.9571,-4.9534,-4.9599,-4.9521,-4.9611,-4.9547,-4.9569,-4.9569,-4.9574,-4.9577,-4.949,-4.9626,-4.9852,-4.9875,-4.9582,-4.958,-4.9578,0,-4.9396,-4.9465,-4.9546,-4.9559,-4.9567,-4.9606,-4.9611,-4.9622,-4.9647,-4.9675,-4.9691,-4.9726,-4.9746,-4.9774,-4.9748,-4.9693,-4.9843,-4.9761,-4.9836,-4.9837,-4.987,-4.9868,-5.0103,-4.9885,-4.9885,-4.9884,-4.9884,0,-4.9572,-4.9648,-4.9614,-4.9664,-4.9747,-4.9712,-4.9795,-4.9793,-4.9804,-4.9852,-4.9801,-4.9848,-4.981,-4.9853,-4.9833,-4.9911,-4.992,-4.9914,-4.9907,-4.9918,-4.9919,-4.9932,-4.9921,-4.989,-4.9889,-4.9888,-4.9887,0,-4.9754,-4.9735,-4.9819,-4.9821,-4.9823,-4.9885,-4.9886,-4.9932,-4.9921,-4.9983,-4.9995,-4.9977,-5.0025,-5.0002,-5.0052,-5.0038,-5.0139,-5.0119,-5.0135,-5.0129,-5.0206,-5.0199,-5.0457,-5.0489,-5.0251,-5.0253,-5.0255,0,-4.9868,-4.9925,-4.9934,-4.9963,-4.9972,-5.0019,-5.0045,-5.0013,-5.0041,-5.0064,-5.0107,-5.0151,-5.0185,-5.0265,-5.0256,-5.0294,-5.0274,-5.0363,-5.028,-5.0289,-5.0276,-5.0273,-5.0279,-5.0379,-5.0382,-5.0384,-5.0386,0,-5.0072,-5.006,-5.01,-5.0137,-5.0169,-5.0196,-5.0219,-5.0245,-5.0214,-5.0249,-5.0298,-5.0324,-5.0376,-5.0421,-5.0454,-5.0459,-5.0418,-5.0412,-5.0432,-5.0443,-5.045,-5.0447,-5.018,-5.0406,-5.0404,-5.0403,-5.0402,-5.0401,-5.0224,-5.0272,-5.0286,-5.0332,-5.0346,-5.0369,-5.0412,-5.0407,-5.0448,-5.0488,-5.0467,-5.0525,-5.0539,-5.058,-5.0591,-5.0635,-5.06,-5.0628,-5.0635,-5.0643,-5.0653,-5.0444,-5.0641,-5.0641,-5.064,-5.064,-5.0639,0,-5.0425,-5.0432,-5.0474,-5.0509,-5.0545,-5.0504,-5.0527,-5.056,-5.0612,-5.0629,-5.0664,-5.0721,-5.0764,-5.076,-5.08,-5.0836,-5.0819,-5.0848,-5.0845,-5.0847,-5.0682,-5.0661,-5.0862,-5.0862,-5.0862,-5.0862,-5.0862,-5.0862,-5.0534,-5.0614,-5.0604,-5.0691,-5.0696,-5.0754,-5.0771,-5.0791,-5.0805,-5.0872,-5.0908,-5.0905,-5.0914,-5.0954,-5.0992,-5.099,-5.1007,-5.1043,-5.1034,-5.088,-5.0858,-5.0837,-5.0817,-5.1047,-5.1048,-5.1194,-5.1196,-5.1197]},{"header":{"parameterUnit":"m.s-1","parameterCategory":1,"la1":30.2991,"la2":30.254,"lo1":-89.0895,"lo2":-89.0444,"dy":0.0017,"dx":0.0017,"nx":28,"ny":28,"refTime":"2023-10-03T09:00:00:Z","depth":0,"parameterNumber":3,"parameterNumberName":"V-component_of_WINDS"},"data":[0,0,0,0,0,0,0,0,0,0,0,0,0,0,0,0,0,0,0,0,0,0,0,0,0,0,0,0,0,0,0,0,0,0,0,0,0,0,0,0,0,0,0,0,0,0,0,0,0,0,0,0,0,0,0,0,0,0,-0.7066,-0.7066,0,-0.7034,-0.7034,-0.7033,-0.6993,-0.6992,-0.6992,-0.6991,-0.6958,-0.6958,-0.6958,0,0,0,0,0,0,0,0,0,0,0,0,0,-0.7091,-0.7091,-0.7066,-0.7066,-0.7066,-0.7034,-0.7034,-0.7033,-0.6993,-0.6992,-0.6992,-0.6991,-0.6958,-0.6958,-0.6958,0,0,0,0,0,0,0,0,0,0,0,0,0,-0.7072,-0.7091,-0.7067,-0.7042,-0.7039,-0.7034,-0.7034,-0.7033,-0.6993,-0.6992,-0.6991,-0.6991,-0.6958,-0.6958,-0.6957,-0.6974,0,0,-0.6956,-0.6956,0,0,0,0,0,0,0,0,-0.7073,-0.7071,-0.7046,-0.7044,-0.7041,-0.7017,-0.703,-0.7013,-0.6994,-0.7011,-0.6991,-0.699,-0.6978,-0.6976,-0.6972,-0.6973,-0.6971,-0.6956,-0.6956,-0.6956,-0.6956,0,0,0,0,0,0,0,-0.7074,-0.7072,-0.7054,-0.7046,-0.7042,-0.7032,-0.7028,-0.7027,-0.7,-0.7009,-0.7006,-0.7003,-0.6977,-0.6973,-0.6971,-0.6971,-0.6956,-0.6956,-0.6956,-0.6955,-0.698,-0.6981,0,0,0,0,0,0,-0.708,-0.7074,-0.7055,-0.7053,-0.7055,-0.7032,-0.7028,-0.7025,-0.7,-0.6996,-0.7004,-0.7001,-0.6974,-0.6972,-0.697,-0.6986,-0.6956,-0.6955,-0.6955,-0.6979,-0.698,-0.6981,0,0,0,0,0,0,-0.708,-0.7078,-0.7056,-0.7062,-0.7059,-0.7033,-0.703,-0.7025,-0.7021,-0.6996,-0.6991,-0.7005,-0.6973,-0.6971,-0.6973,-0.6984,-0.6955,-0.6955,-0.6978,-0.698,-0.6981,-0.7019,0,0,0,0,0,0,-0.7081,-0.7079,-0.7086,-0.7063,-0.7058,-0.706,-0.7031,-0.7025,-0.7021,-0.7017,-0.6996,-0.6991,-0.6972,-0.6974,-0.6972,-0.6983,-0.6954,-0.6977,-0.6979,-0.698,-0.7017,-0.7022,-0.7026,0,0,0,0,0,-0.7082,-0.7098,-0.7086,-0.7084,-0.7066,-0.7061,-0.7058,-0.7036,-0.7022,-0.7028,-0.7011,-0.6992,-0.6983,-0.6974,-0.6972,-0.6983,-0.6976,-0.6978,-0.698,-0.7015,-0.7021,-0.7026,0,0,0,0,0,0,-0.7124,-0.7095,-0.7081,-0.709,-0.7078,-0.7054,-0.7061,-0.7044,-0.7035,-0.7032,-0.7005,-0.7,-0.7005,-0.6995,-0.6985,-0.6997,-0.6977,-0.6979,-0.7004,-0.7009,-0.7014,-0.7016,-0.6954,0,0,0,0,0,-0.7134,-0.7132,-0.7107,-0.7118,-0.7112,-0.7088,-0.7085,-0.7068,-0.7055,-0.7049,-0.7033,-0.702,-0.7014,-0.7011,-0.7005,-0.7015,-0.7009,-0.7022,-0.7026,-0.703,-0.7032,-0.7034,-0.7039,-0.6988,-0.6988,-0.6988,0,0,-0.7155,-0.7139,-0.714,-0.7125,-0.7114,-0.7112,-0.7084,-0.7084,-0.7081,-0.7049,-0.705,-0.7038,-0.7021,-0.7027,-0.7029,-0.7018,-0.7044,-0.7033,-0.7036,-0.7036,-0.7037,-0.7042,-0.7046,-0.6989,-0.6989,-0.6989,0,0,-0.7192,-0.7181,-0.7187,-0.7176,-0.7159,-0.7142,-0.7144,-0.7122,-0.7112,-0.7112,-0.7087,-0.7084,-0.7075,-0.7064,-0.7057,-0.7087,-0.7069,-0.7086,-0.711,-0.7113,-0.7117,-0.712,-0.7129,-0.7133,-0.7088,-0.7088,-0.7088,0,-0.7221,-0.7217,-0.7193,-0.7193,-0.7187,-0.7157,-0.7162,-0.7153,-0.7135,-0.713,-0.7119,-0.7105,-0.7092,-0.7094,-0.7101,-0.7097,-0.7097,-0.7088,-0.7118,-0.7121,-0.7124,-0.7132,-0.7136,-0.709,-0.709,-0.709,-0.7089,0,-0.7252,-0.725,-0.7257,-0.7239,-0.7234,-0.7237,-0.7212,-0.7209,-0.7192,-0.7177,-0.7176,-0.7159,-0.7147,-0.7147,-0.7131,-0.7146,-0.7139,-0.7123,-0.7102,-0.7131,-0.7139,-0.7142,-0.7093,-0.7092,-0.7092,-0.7091,0,0,-0.7316,-0.7283,-0.7286,-0.7276,-0.7254,-0.7252,-0.7253,-0.7241,-0.7238,-0.7226,-0.7225,-0.7217,-0.7201,-0.7194,-0.7176,-0.7179,-0.7201,-0.7162,-0.7161,-0.7169,-0.7214,-0.7226,-0.723,-0.7189,-0.7189,-0.719,-0.7215,0,-0.7348,-0.7348,-0.7325,-0.7331,-0.7327,-0.7298,-0.7298,-0.7284,-0.7269,-0.7263,-0.7246,-0.724,-0.7221,-0.7215,-0.7217,-0.7199,-0.721,-0.7196,-0.7187,-0.7187,-0.7191,-0.7234,-0.7247,-0.7271,-0.7218,-0.7218,-0.7219,0,-0.7386,-0.7375,-0.7381,-0.7356,-0.7354,-0.7355,-0.7341,-0.7336,-0.7319,-0.7307,-0.7298,-0.7277,-0.7275,-0.7256,-0.7251,-0.7242,-0.7237,-0.7227,-0.7228,-0.7225,-0.7204,-0.7232,-0.7279,-0.7282,-0.7223,-0.7223,-0.7223,0,-0.743,-0.7417,-0.7418,-0.7411,-0.7383,-0.7384,-0.7372,-0.7354,-0.7347,-0.7335,-0.733,-0.7318,-0.7311,-0.7302,-0.7278,-0.7266,-0.7276,-0.7255,-0.7265,-0.7266,-0.7269,-0.7269,-0.7314,-0.7267,-0.7267,-0.7266,-0.7266,0,-0.7468,-0.7472,-0.7437,-0.7437,-0.744,-0.7413,-0.7417,-0.7402,-0.7386,-0.7382,-0.7356,-0.7353,-0.7322,-0.7315,-0.7297,-0.7295,-0.7293,-0.7282,-0.7277,-0.7284,-0.7285,-0.728,-0.7277,-0.7267,-0.7267,-0.7267,-0.7267,0,-0.7518,-0.7494,-0.7493,-0.7466,-0.7459,-0.7463,-0.7439,-0.7438,-0.742,-0.7416,-0.7413,-0.7386,-0.7376,-0.7351,-0.7336,-0.7323,-0.7326,-0.7317,-0.7331,-0.7328,-0.7339,-0.7338,-0.7382,-0.7386,-0.7337,-0.7338,-0.7338,0,-0.7543,-0.7546,-0.7518,-0.7514,-0.7503,-0.7497,-0.7489,-0.7462,-0.7456,-0.7435,-0.7436,-0.7424,-0.7413,-0.7398,-0.7376,-0.7364,-0.7354,-0.737,-0.7352,-0.7358,-0.7352,-0.7352,-0.7351,-0.7374,-0.7375,-0.7375,-0.7376,0,-0.759,-0.7578,-0.7569,-0.7555,-0.7548,-0.7536,-0.7522,-0.752,-0.7489,-0.7483,-0.7472,-0.7464,-0.7446,-0.7434,-0.7418,-0.7405,-0.7384,-0.7381,-0.7383,-0.739,-0.7397,-0.7392,-0.7341,-0.7381,-0.738,-0.738,-0.7379,-0.7379,-0.7628,-0.7628,-0.7608,-0.7598,-0.7585,-0.7572,-0.7569,-0.755,-0.7541,-0.7525,-0.7509,-0.75,-0.748,-0.7456,-0.7444,-0.7435,-0.7425,-0.7428,-0.7428,-0.7429,-0.7431,-0.7399,-0.7432,-0.7432,-0.7432,-0.7432,-0.7432,0,-0.7672,-0.7658,-0.7649,-0.763,-0.7622,-0.7603,-0.7587,-0.7581,-0.7573,-0.7557,-0.7546,-0.7533,-0.752,-0.7497,-0.7482,-0.7479,-0.747,-0.7476,-0.7476,-0.7473,-0.7442,-0.7442,-0.7484,-0.7484,-0.7484,-0.7484,-0.7484,-0.7484,-0.7694,-0.7692,-0.7678,-0.7668,-0.7653,-0.7644,-0.7636,-0.7623,-0.761,-0.7596,-0.7585,-0.757,-0.755,-0.7533,-0.752,-0.7514,-0.7509,-0.7518,-0.7509,-0.748,-0.7475,-0.7471,-0.747,-0.7518,-0.7518,-0.754,-0.754,-0.754]}]]